Dallas Addison, TX

12:15 AM CDT on July 22, 2017 (GMT -0500)
Addison

Weather History for KADS - August, 2014

Change the Weather History Date:

Sunday, August 10, 2014

  Actual Average Record
Temperature  
Mean Temperature 89 °F -  
Max Temperature 101 °F 93 °F 105 °F (1999)
Min Temperature 80 °F 75 °F 73 °F (1996)
Cooling Degree Days 24    
Growing Degree Days 39 (Base 50)    
Moisture  
Dew Point 67 °F    
Average Humidity 52    
Maximum Humidity 70    
Minimum Humidity 29    
Precipitation  
Precipitation 0.00 in - - ()
Sea Level Pressure  
Sea Level Pressure 29.99 in    
Wind  
Wind Speed 7 mph (South)    
Max Wind Speed 12 mph    
Max Gust Speed 20 mph    
Visibility 11 miles    
Events Thunderstorm    
Averages and records for this station are not official NWS values.
T = Trace of Precipitation, MM = Missing Value Source: NWS Daily Summary

Daily Weather History Graph

Daily Weather History Graph

Search for Another Location

Airport or City:

Trip Planner

Search our weather history database for the weather conditions in past years. The results will help you decide how hot, cold, wet, or windy it might be!

Date:

Astronomy

Aug. 10, 2014 Rise Set
Actual Time 6:47 AM CDT 8:17 PM CDT
Civil Twilight 6:20 AM CDT 8:44 PM CDT
Nautical Twilight 5:49 AM CDT 9:15 PM CDT
Astronomical Twilight 5:15 AM CDT 9:48 PM CDT
Moon 8:10 PM CDT (8/10) 6:38 AM CDT (8/10)
Length of Visible Light 14h 23m
Length of Day
13h 30m
Full, 100% of the Moon is Illuminated
Aug 10
Full
Aug 10
Full
Aug 17
Last Quarter
Aug 25
New
Sep 2
First Quarter

Hourly Weather History & Observations

Time (CDT) Temp. Heat Index Dew Point Humidity Pressure Visibility Wind Dir Wind Speed Gust Speed Precip Events Conditions
12:15 AM 82.0 °F 85.1 °F 68.2 °F 63% 29.99 in 10.0 mi ESE 10.4 mph - N/A   Clear
12:35 AM 81.9 °F 85.0 °F 68.5 °F 64% 29.98 in 10.0 mi SE 8.1 mph - N/A   Clear
12:55 AM 81.7 °F 84.7 °F 68.4 °F 64% 29.98 in 10.0 mi SE 8.1 mph - N/A   Clear
1:15 AM 81.5 °F 84.6 °F 68.5 °F 65% 29.98 in 10.0 mi SSE 11.5 mph - N/A   Clear
1:35 AM 80.6 °F 83.4 °F 68.4 °F 66% 29.97 in 10.0 mi SSE 8.1 mph - N/A   Clear
1:55 AM 81.7 °F 84.7 °F 68.5 °F 64% 29.97 in 10.0 mi South 10.4 mph - N/A   Clear
2:15 AM 81.1 °F 84.2 °F 68.9 °F 66% 29.97 in 10.0 mi South 6.9 mph - N/A   Clear
2:35 AM 81.7 °F 84.9 °F 69.1 °F 65% 29.97 in 10.0 mi South 5.8 mph - N/A   Clear
2:55 AM 82.0 °F 85.5 °F 69.3 °F 65% 29.97 in 10.0 mi South 4.6 mph - N/A   Clear
3:15 AM 81.5 °F 84.9 °F 69.4 °F 67% 29.97 in 10.0 mi South 5.8 mph - N/A   Clear
3:35 AM 80.8 °F 83.9 °F 69.4 °F 68% 29.98 in 10.0 mi South 3.5 mph - N/A   Clear
3:55 AM 80.2 °F 83.2 °F 69.4 °F 69% 29.98 in 10.0 mi Calm Calm - N/A   Clear
4:15 AM 80.6 °F 83.6 °F 69.3 °F 68% 29.98 in 10.0 mi South 4.6 mph - N/A   Clear
4:35 AM 82.6 °F 85.7 °F 68.4 °F 62% 29.98 in 10.0 mi South 5.8 mph - N/A   Clear
4:55 AM 83.3 °F 86.6 °F 68.5 °F 61% 29.99 in 10.0 mi South 6.9 mph - N/A   Clear
5:15 AM 82.9 °F 86.3 °F 68.5 °F 62% 29.99 in 10.0 mi South 6.9 mph - N/A   Clear
5:35 AM 82.6 °F 85.9 °F 68.9 °F 63% 29.98 in 10.0 mi South 6.9 mph - N/A   Clear
6:50 AM 80.6 °F 83.9 °F 69.8 °F 70% 29.99 in 13.0 mi South 5.8 mph - N/A   Scattered Clouds
7:48 AM 82.4 °F 86.3 °F 69.8 °F 66% 30.00 in 13.0 mi South 4.6 mph - N/A   Scattered Clouds
8:47 AM 84.2 °F 88.4 °F 69.8 °F 62% 30.02 in 13.0 mi South 4.6 mph - N/A   Partly Cloudy
9:47 AM 86.0 °F 90.4 °F 69.8 °F 58% 30.04 in 13.0 mi SW 6.9 mph - N/A   Mostly Cloudy
10:47 AM 89.6 °F 93.4 °F 68.0 °F 49% 30.04 in 13.0 mi SW 3.5 mph - N/A   Mostly Cloudy
11:47 AM 93.2 °F 96.2 °F 66.2 °F 41% 30.04 in 13.0 mi West 10.4 mph - N/A   Scattered Clouds
12:18 PM 95.0 °F 98.5 °F 66.2 °F 39% 30.04 in 13.0 mi West 8.1 mph 17.3 mph N/A   Scattered Clouds
12:47 PM 95.0 °F 97.0 °F 64.4 °F 36% 30.03 in 13.0 mi WSW 8.1 mph 15.0 mph N/A   Mostly Cloudy
1:47 PM 96.8 °F 98.0 °F 62.6 °F 32% 30.01 in 13.0 mi WSW 8.1 mph 17.3 mph N/A   Mostly Cloudy
2:05 PM 96.8 °F 98.0 °F 62.6 °F 32% 30.00 in 13.0 mi South 11.5 mph - N/A   Mostly Cloudy
2:58 PM 98.6 °F 99.4 °F 60.8 °F 29% 29.98 in 13.0 mi SSE 3.5 mph - N/A   Mostly Cloudy
3:52 PM 98.6 °F 101.0 °F 64.4 °F 32% 29.97 in 13.0 mi SE 10.4 mph - N/A Thunderstorm Thunderstorm
4:19 PM 96.8 °F 98.0 °F 62.6 °F 32% 29.96 in 13.0 mi SE 10.4 mph 13.8 mph N/A   Mostly Cloudy
4:55 PM 95.0 °F 95.2 °F 60.8 °F 32% 29.95 in 13.0 mi SSE 6.9 mph - N/A   Mostly Cloudy
5:47 PM 95.0 °F 95.2 °F 60.8 °F 32% 29.94 in 13.0 mi Calm Calm - N/A   Mostly Cloudy
6:47 PM 96.8 °F 98.0 °F 62.6 °F 32% 29.93 in 15.0 mi Variable 4.6 mph - N/A   Mostly Cloudy
7:51 PM 93.2 °F 94.9 °F 64.4 °F 38% 29.94 in 13.0 mi SSE 11.5 mph 19.6 mph N/A   Mostly Cloudy
8:50 PM 89.6 °F 92.2 °F 66.2 °F 46% 29.96 in 13.0 mi SSE 9.2 mph - N/A   Mostly Cloudy
9:47 PM 87.8 °F 89.4 °F 64.4 °F 46% 29.98 in 13.0 mi SE 3.5 mph - N/A   Mostly Cloudy
10:15 PM 89.4 °F 91.5 °F 65.5 °F 45% 30.01 in 10.0 mi WNW 6.9 mph - N/A   Scattered Clouds
10:55 PM 88.2 °F 90.6 °F 66.4 °F 48% 30.02 in 10.0 mi Calm Calm - N/A   Clear
11:15 PM 87.8 °F 90.0 °F 66.0 °F 48% 30.02 in 10.0 mi Calm Calm - N/A   Clear
11:35 PM 86.9 °F 89.3 °F 66.2 °F 50% 30.03 in 10.0 mi West 4.6 mph - N/A   Clear
11:55 PM 86.0 °F 87.9 °F 65.3 °F 50% 30.04 in 10.0 mi West 5.8 mph - N/A   Clear